| time (UTC) | temp F | wind direction | speed MPH | gust MPH | rain 1hr in | rain 24hr in | rain mn in | humidity % | barometer mb |
| 20260906165024 | 75 | 129 | 0.0 | 2.0 | 0.00 | 0.00 | 0.00 | 80 | 1019.5 |
| 20260906164523 | 74 | 164 | 6.0 | 7.0 | 0.00 | 0.00 | 0.00 | 81 | 1019.7 |
| 20260906164020 | 74 | 136 | 2.0 | 3.0 | 0.00 | 0.00 | 0.00 | 81 | 1019.5 |
| 20260906163514 | 74 | 207 | 2.0 | 3.0 | 0.00 | 0.00 | 0.00 | 82 | 1019.8 |
| 20260906163010 | 73 | 126 | 2.0 | 3.0 | 0.00 | 0.00 | 0.00 | 82 | 1019.7 |
| 20260906162506 | 73 | 191 | 0.0 | 2.0 | 0.00 | 0.00 | 0.00 | 83 | 1019.8 |
| 20260906161956 | 73 | 153 | 2.0 | 3.0 | 0.00 | 0.00 | 0.00 | 82 | 1019.7 |
| 20260906161456 | 73 | 101 | 2.0 | 3.0 | 0.00 | 0.00 | 0.00 | 83 | 1019.9 |
| 20260906160954 | 73 | 169 | 2.0 | 2.0 | 0.00 | 0.00 | 0.00 | 83 | 1019.9 |
| 20260906160448 | 73 | 147 | 2.0 | 3.0 | 0.00 | 0.00 | 0.00 | 84 | 1019.9 |
| 20260906155947 | 73 | 193 | 2.0 | 2.0 | 0.00 | 0.00 | 0.00 | 83 | 1019.8 |
| 20260906155445 | 73 | 180 | 0.0 | 0.0 | 0.00 | 0.00 | 0.00 | 83 | 1019.6 |
| 20260906154942 | 73 | 249 | 1.0 | 2.0 | 0.00 | 0.00 | 0.00 | 83 | 1019.6 |
| 20260906154437 | 73 | 165 | 2.0 | 3.0 | 0.00 | 0.00 | 0.00 | 84 | 1019.7 |
| 20260906153935 | 73 | 173 | 0.0 | 2.0 | 0.00 | 0.00 | 0.00 | 83 | 1019.7 |
| 20260906153434 | 73 | 174 | 2.0 | 3.0 | 0.00 | 0.00 | 0.00 | 84 | 1019.6 |
| 20260906152929 | 73 | 193 | 2.0 | 2.0 | 0.00 | 0.00 | 0.00 | 84 | 1019.9 |
| 20260906152424 | 73 | 152 | 1.0 | 2.0 | 0.00 | 0.00 | 0.00 | 84 | 1019.9 |
| 20260906151923 | 73 | 172 | 2.0 | 5.0 | 0.00 | 0.00 | 0.00 | 83 | 1019.9 |
| 20260906151419 | 73 | 197 | 3.0 | 3.0 | 0.00 | 0.00 | 0.00 | 83 | 1020.0 |
| 20260906150914 | 73 | 190 | 1.0 | 2.0 | 0.00 | 0.00 | 0.00 | 85 | 1019.9 |
| 20260906150409 | 73 | 218 | 3.0 | 5.0 | 0.00 | 0.00 | 0.00 | 84 | 1019.7 |
| 20260906145909 | 73 | 121 | 1.0 | 2.0 | 0.00 | 0.00 | 0.00 | 84 | 1020.0 |
| 20260906145407 | 73 | 139 | 2.0 | 3.0 | 0.00 | 0.00 | 0.00 | 84 | 1019.8 |
| 20260906144903 | 72 | 185 | 1.0 | 2.0 | 0.00 | 0.00 | 0.00 | 85 | 1019.8 |
| 20260906144403 | 72 | 190 | 4.0 | 5.0 | 0.00 | 0.00 | 0.00 | 86 | 1019.8 |
| 20260906143858 | 72 | 167 | 1.0 | 2.0 | 0.00 | 0.00 | 0.00 | 86 | 1019.7 |
| 20260906143354 | 71 | 211 | 1.0 | 2.0 | 0.00 | 0.00 | 0.00 | 86 | 1019.8 |
| 20260906142849 | 72 | 125 | 0.0 | 2.0 | 0.00 | 0.00 | 0.00 | 86 | 1019.8 |
| 20260906142344 | 71 | 153 | 1.0 | 3.0 | 0.00 | 0.00 | 0.00 | 86 | 1019.7 |
| 20260906141845 | 71 | 159 | 3.0 | 3.0 | 0.00 | 0.00 | 0.00 | 87 | 1019.7 |
| 20260906141339 | 71 | 174 | 1.0 | 2.0 | 0.00 | 0.00 | 0.00 | 87 | 1019.6 |
| 20260906140838 | 72 | 163 | 2.0 | 3.0 | 0.00 | 0.00 | 0.00 | 86 | 1019.7 |
| 20260906140333 | 72 | 184 | 4.0 | 7.0 | 0.00 | 0.00 | 0.00 | 86 | 1019.6 |
| 20260906135831 | 72 | 176 | 1.0 | 2.0 | 0.00 | 0.00 | 0.00 | 86 | 1019.7 |
| 20260906135326 | 72 | 159 | 0.0 | 2.0 | 0.00 | 0.00 | 0.00 | 87 | 1019.4 |
| 20260906134821 | 72 | 356 | 3.0 | 5.0 | 0.00 | 0.00 | 0.00 | 88 | 1019.4 |
| 20260906134316 | 72 | 202 | 2.0 | 5.0 | 0.00 | 0.00 | 0.00 | 88 | 1019.5 |
| 20260906133812 | 71 | 131 | 1.0 | 2.0 | 0.00 | 0.00 | 0.00 | 88 | 1019.5 |
| 20260906133307 | 71 | 148 | 0.0 | 0.0 | 0.00 | 0.00 | 0.00 | 88 | 1019.4 |
| 20260906132803 | 71 | 95 | 3.0 | 5.0 | 0.00 | 0.00 | 0.00 | 89 | 1019.3 |
| 20260906132306 | 71 | 167 | 0.0 | 0.0 | 0.00 | 0.00 | 0.00 | 89 | 1019.3 |
| 20260906131758 | 71 | 187 | 2.0 | 3.0 | 0.00 | 0.00 | 0.00 | 90 | 1019.0 |
| 20260906131253 | 70 | 163 | 0.0 | 0.0 | 0.00 | 0.00 | 0.00 | 90 | 1019.1 |
| 20260906130749 | 70 | 159 | 0.0 | 0.0 | 0.00 | 0.00 | 0.00 | 90 | 1019.2 |
| 20260906130244 | 70 | 162 | 0.0 | 0.0 | 0.00 | 0.00 | 0.00 | 91 | 1019.0 |
| 20260906125742 | 70 | 164 | 0.0 | 0.0 | 0.00 | 0.00 | 0.00 | 91 | 1019.1 |
| 20260906125240 | 70 | 155 | 0.0 | 0.0 | 0.00 | 0.00 | 0.00 | 91 | 1019.1 |
| 20260906124735 | 70 | 174 | 0.0 | 0.0 | 0.00 | 0.00 | 0.00 | 92 | 1019.0 |
| 20260906124231 | 69 | 142 | 1.0 | 2.0 | 0.00 | 0.00 | 0.00 | 93 | 1019.0 |
| 20260906123729 | 69 | 161 | 0.0 | 0.0 | 0.00 | 0.00 | 0.00 | 93 | 1019.0 |
| 20260906123225 | 69 | 154 | 0.0 | 0.0 | 0.00 | 0.00 | 0.00 | 94 | 1018.9 |
| 20260906122725 | 69 | 166 | 0.0 | 0.0 | 0.00 | 0.00 | 0.00 | 94 | 1019.1 |
| 20260906122220 | 69 | 164 | 0.0 | 0.0 | 0.00 | 0.00 | 0.00 | 95 | 1019.0 |
| 20260906121716 | 68 | 159 | 0.0 | 0.0 | 0.00 | 0.00 | 0.00 | 95 | 1018.9 |
| 20260906121213 | 68 | 169 | 0.0 | 0.0 | 0.00 | 0.00 | 0.00 | 95 | 1019.0 |
| 20260906120708 | 68 | 170 | 0.0 | 0.0 | 0.00 | 0.00 | 0.00 | 95 | 1018.8 |
| 20260906120205 | 67 | 161 | 0.0 | 0.0 | 0.00 | 0.00 | 0.00 | 95 | 1018.8 |
| 20260906115700 | 68 | 159 | 0.0 | 0.0 | 0.00 | 0.00 | 0.00 | 94 | 1018.7 |
| 20260906115155 | 68 | 159 | 0.0 | 0.0 | 0.00 | 0.00 | 0.00 | 94 | 1018.7 |
| 20260906114654 | 68 | 159 | 0.0 | 0.0 | 0.00 | 0.00 | 0.00 | 94 | 1018.8 |
| 20260906114149 | 68 | 166 | 0.0 | 0.0 | 0.00 | 0.00 | 0.00 | 94 | 1018.7 |
| 20260906113650 | 68 | 171 | 0.0 | 0.0 | 0.00 | 0.00 | 0.00 | 94 | 1018.8 |
| 20260906113150 | 68 | 171 | 0.0 | 0.0 | 0.00 | 0.00 | 0.00 | 93 | 1018.6 |
| 20260906112649 | 68 | 171 | 0.0 | 0.0 | 0.00 | 0.00 | 0.00 | 93 | 1018.6 |
| 20260906112146 | 68 | 171 | 0.0 | 0.0 | 0.00 | 0.00 | 0.00 | 93 | 1018.6 |
| 20260906111645 | 69 | 171 | 0.0 | 0.0 | 0.00 | 0.00 | 0.00 | 93 | 1018.6 |
| 20260906111139 | 69 | 171 | 0.0 | 0.0 | 0.00 | 0.00 | 0.00 | 93 | 1018.4 |
| 20260906110635 | 69 | 168 | 0.0 | 0.0 | 0.00 | 0.00 | 0.00 | 92 | 1018.4 |
| 20260906110130 | 69 | 156 | 0.0 | 0.0 | 0.00 | 0.00 | 0.00 | 92 | 1018.4 |
| 20260906105624 | 69 | 158 | 0.0 | 0.0 | 0.00 | 0.00 | 0.00 | 92 | 1018.6 |
| 20260906105121 | 69 | 154 | 0.0 | 0.0 | 0.00 | 0.00 | 0.00 | 92 | 1018.5 |
| 20260906104619 | 70 | 159 | 0.0 | 0.0 | 0.00 | 0.00 | 0.00 | 92 | 1018.5 |
| 20260906104108 | 70 | 171 | 0.0 | 2.0 | 0.00 | 0.00 | 0.00 | 92 | 1018.5 |
| 20260906103606 | 70 | 159 | 0.0 | 0.0 | 0.00 | 0.00 | 0.00 | 91 | 1018.6 |
| 20260906103101 | 70 | 164 | 0.0 | 0.0 | 0.00 | 0.00 | 0.00 | 91 | 1018.4 |
| 20260906102601 | 70 | 170 | 0.0 | 0.0 | 0.00 | 0.00 | 0.00 | 91 | 1018.4 |
| 20260906102056 | 70 | 153 | 0.0 | 0.0 | 0.00 | 0.00 | 0.00 | 91 | 1018.4 |
| 20260906101556 | 70 | 155 | 0.0 | 0.0 | 0.00 | 0.00 | 0.00 | 91 | 1018.3 |
| 20260906101051 | 70 | 161 | 0.0 | 0.0 | 0.00 | 0.00 | 0.00 | 91 | 1018.5 |
| 20260906100547 | 70 | 183 | 0.0 | 0.0 | 0.00 | 0.00 | 0.00 | 91 | 1018.2 |
| 20260906100048 | 70 | 166 | 0.0 | 0.0 | 0.00 | 0.00 | 0.00 | 91 | 1018.2 |
| 20260906095547 | 70 | 162 | 0.0 | 0.0 | 0.00 | 0.00 | 0.00 | 91 | 1018.2 |
| 20260906095043 | 70 | 202 | 2.0 | 3.0 | 0.00 | 0.00 | 0.00 | 92 | 1018.0 |
| 20260906094542 | 70 | 162 | 0.0 | 0.0 | 0.00 | 0.00 | 0.00 | 92 | 1017.8 |
| 20260906094038 | 70 | 156 | 0.0 | 0.0 | 0.00 | 0.00 | 0.00 | 91 | 1017.6 |
| 20260906093533 | 70 | 167 | 0.0 | 0.0 | 0.00 | 0.00 | 0.00 | 91 | 1017.5 |
| 20260906093028 | 70 | 187 | 0.0 | 2.0 | 0.00 | 0.00 | 0.00 | 92 | 1017.8 |
| 20260906092523 | 70 | 171 | 0.0 | 2.0 | 0.00 | 0.00 | 0.00 | 92 | 1017.5 |
| 20260906092018 | 70 | 161 | 0.0 | 0.0 | 0.00 | 0.00 | 0.00 | 92 | 1017.5 |
| 20260906091513 | 70 | 158 | 0.0 | 0.0 | 0.00 | 0.00 | 0.00 | 91 | 1017.4 |
| 20260906091011 | 70 | 157 | 0.0 | 0.0 | 0.00 | 0.00 | 0.00 | 91 | 1017.5 |
| 20260906090511 | 70 | 162 | 0.0 | 0.0 | 0.00 | 0.00 | 0.00 | 91 | 1017.7 |
| 20260906090010 | 70 | 162 | 0.0 | 0.0 | 0.00 | 0.00 | 0.00 | 91 | 1017.5 |
| 20260906085509 | 70 | 161 | 0.0 | 0.0 | 0.00 | 0.00 | 0.00 | 90 | 1017.7 |
| 20260906085009 | 70 | 163 | 0.0 | 0.0 | 0.00 | 0.00 | 0.00 | 90 | 1017.7 |
| 20260906084504 | 71 | 156 | 0.0 | 0.0 | 0.00 | 0.00 | 0.00 | 90 | 1017.6 |
| 20260906084002 | 71 | 160 | 0.0 | 0.0 | 0.00 | 0.00 | 0.00 | 90 | 1017.6 |
| 20260906083459 | 71 | 155 | 0.0 | 0.0 | 0.00 | 0.00 | 0.00 | 89 | 1017.6 |
| 20260906082957 | 71 | 163 | 0.0 | 0.0 | 0.00 | 0.00 | 0.00 | 89 | 1017.5 |
| 20260906082453 | 71 | 155 | 0.0 | 0.0 | 0.00 | 0.00 | 0.00 | 90 | 1017.4 |
| 20260906081949 | 71 | 158 | 0.0 | 0.0 | 0.00 | 0.00 | 0.00 | 90 | 1017.5 |
| 20260906081443 | 71 | 165 | 0.0 | 0.0 | 0.00 | 0.00 | 0.00 | 89 | 1017.5 |
| 20260906080940 | 71 | 158 | 0.0 | 0.0 | 0.00 | 0.00 | 0.00 | 89 | 1017.6 |
| 20260906080436 | 71 | 158 | 0.0 | 0.0 | 0.00 | 0.00 | 0.00 | 89 | 1017.3 |
| 20260906075931 | 71 | 154 | 1.0 | 2.0 | 0.00 | 0.00 | 0.00 | 89 | 1017.4 |
| 20260906075426 | 71 | 152 | 0.0 | 0.0 | 0.00 | 0.00 | 0.00 | 89 | 1017.5 |
| 20260906074921 | 71 | 174 | 0.0 | 0.0 | 0.00 | 0.00 | 0.00 | 89 | 1017.3 |
| 20260906074420 | 71 | 172 | 0.0 | 0.0 | 0.00 | 0.00 | 0.00 | 89 | 1017.5 |
| 20260906073919 | 71 | 150 | 0.0 | 0.0 | 0.00 | 0.00 | 0.00 | 90 | 1017.6 |
| 20260906073414 | 71 | 160 | 0.0 | 0.0 | 0.00 | 0.00 | 0.00 | 89 | 1017.6 |
| 20260906072911 | 71 | 160 | 0.0 | 0.0 | 0.00 | 0.00 | 0.00 | 89 | 1017.6 |
| 20260906072406 | 72 | 160 | 0.0 | 0.0 | 0.00 | 0.00 | 0.00 | 88 | 1017.7 |
| 20260906071901 | 72 | 160 | 0.0 | 0.0 | 0.00 | 0.00 | 0.00 | 88 | 1017.7 |
| 20260906071357 | 72 | 169 | 0.0 | 0.0 | 0.00 | 0.00 | 0.00 | 88 | 1017.8 |
| 20260906070853 | 72 | 162 | 0.0 | 0.0 | 0.00 | 0.00 | 0.00 | 87 | 1017.9 |
| 20260906070349 | 72 | 161 | 0.0 | 0.0 | 0.00 | 0.00 | 0.00 | 87 | 1017.8 |
| 20260906065844 | 72 | 171 | 0.0 | 0.0 | 0.00 | 0.00 | 0.00 | 87 | 1018.0 |
| 20260906065338 | 73 | 155 | 0.0 | 0.0 | 0.00 | 0.00 | 0.00 | 87 | 1018.1 |
| 20260906064834 | 73 | 164 | 0.0 | 0.0 | 0.00 | 0.00 | 0.00 | 86 | 1018.1 |
| 20260906064331 | 73 | 159 | 0.0 | 0.0 | 0.00 | 0.00 | 0.00 | 85 | 1017.9 |
| 20260906063830 | 73 | 167 | 0.0 | 0.0 | 0.00 | 0.00 | 0.00 | 85 | 1017.9 |
| 20260906063326 | 74 | 175 | 0.0 | 0.0 | 0.00 | 0.00 | 0.00 | 84 | 1017.8 |
| 20260906062821 | 74 | 162 | 0.0 | 0.0 | 0.00 | 0.00 | 0.00 | 84 | 1018.0 |
| 20260906062320 | 74 | 167 | 0.0 | 0.0 | 0.00 | 0.00 | 0.00 | 84 | 1018.1 |
| 20260906061815 | 74 | 153 | 0.0 | 0.0 | 0.00 | 0.00 | 0.00 | 84 | 1017.8 |
| 20260906061312 | 74 | 169 | 0.0 | 0.0 | 0.00 | 0.00 | 0.00 | 84 | 1017.9 |
| 20260906060806 | 74 | 226 | 3.0 | 5.0 | 0.00 | 0.00 | 0.00 | 85 | 1018.0 |
| 20260906060304 | 74 | 166 | 1.0 | 2.0 | 0.00 | 0.00 | 0.00 | 85 | 1017.9 |
| 20260906055800 | 74 | 159 | 0.0 | 0.0 | 0.00 | 0.00 | 0.00 | 85 | 1017.8 |
| 20260906055255 | 73 | 172 | 0.0 | 0.0 | 0.00 | 0.00 | 0.00 | 85 | 1017.9 |
| 20260906054750 | 73 | 168 | 0.0 | 2.0 | 0.00 | 0.00 | 0.00 | 86 | 1017.9 |
| 20260906054245 | 73 | 156 | 0.0 | 0.0 | 0.00 | 0.00 | 0.00 | 85 | 1017.9 |
| 20260906053742 | 73 | 166 | 0.0 | 0.0 | 0.00 | 0.00 | 0.00 | 85 | 1017.9 |
| 20260906053237 | 73 | 161 | 0.0 | 0.0 | 0.00 | 0.00 | 0.00 | 85 | 1017.9 |
| 20260906052732 | 73 | 158 | 0.0 | 0.0 | 0.00 | 0.00 | 0.00 | 85 | 1017.9 |
| 20260906052228 | 74 | 158 | 0.0 | 0.0 | 0.00 | 0.00 | 0.00 | 84 | 1017.9 |
| 20260906051725 | 74 | 170 | 0.0 | 0.0 | 0.00 | 0.00 | 0.00 | 85 | 1018.0 |
| 20260906051225 | 74 | 161 | 0.0 | 0.0 | 0.00 | 0.00 | 0.00 | 85 | 1018.0 |
| 20260906050720 | 74 | 162 | 0.0 | 0.0 | 0.00 | 0.00 | 0.00 | 85 | 1018.1 |
| 20260906050215 | 73 | 163 | 0.0 | 0.0 | 0.00 | 0.00 | 0.00 | 85 | 1018.1 |
| 20260906045714 | 74 | 171 | 0.0 | 0.0 | 0.00 | 0.00 | 0.00 | 85 | 1018.2 |
| 20260906045209 | 74 | 172 | 0.0 | 0.0 | 0.00 | 0.00 | 0.00 | 85 | 1017.9 |
| 20260906044705 | 73 | 168 | 0.0 | 0.0 | 0.00 | 0.00 | 0.00 | 85 | 1018.2 |
| 20260906044159 | 73 | 170 | 0.0 | 0.0 | 0.00 | 0.00 | 0.00 | 86 | 1018.1 |
| 20260906043656 | 73 | 169 | 0.0 | 0.0 | 0.00 | 0.00 | 0.00 | 86 | 1018.2 |
| 20260906043151 | 73 | 169 | 0.0 | 0.0 | 0.00 | 0.00 | 0.00 | 86 | 1018.3 |
| 20260906042651 | 73 | 169 | 0.0 | 0.0 | 0.00 | 0.00 | 0.00 | 86 | 1018.3 |
| 20260906042144 | 73 | 169 | 0.0 | 0.0 | 0.00 | 0.00 | 0.00 | 86 | 1018.2 |
| 20260906041640 | 73 | 169 | 0.0 | 0.0 | 0.00 | 0.00 | 0.00 | 86 | 1018.3 |
| 20260906041135 | 73 | 169 | 0.0 | 0.0 | 0.00 | 0.00 | 0.00 | 86 | 1018.4 |
| 20260906040631 | 73 | 169 | 0.0 | 0.0 | 0.00 | 0.00 | 0.00 | 86 | 1018.2 |
| 20260906040126 | 73 | 167 | 0.0 | 0.0 | 0.00 | 0.00 | 0.00 | 86 | 1018.4 |
| 20260906035621 | 73 | 168 | 0.0 | 0.0 | 0.00 | 0.00 | 0.00 | 87 | 1018.4 |
| 20260906035117 | 73 | 158 | 0.0 | 0.0 | 0.00 | 0.00 | 0.00 | 87 | 1018.3 |
| 20260906034617 | 73 | 158 | 0.0 | 0.0 | 0.00 | 0.00 | 0.00 | 87 | 1018.4 |
| 20260906034112 | 73 | 158 | 0.0 | 0.0 | 0.00 | 0.00 | 0.00 | 87 | 1018.3 |
| 20260906033608 | 73 | 158 | 0.0 | 0.0 | 0.00 | 0.00 | 0.00 | 86 | 1018.3 |
| 20260906033103 | 73 | 158 | 0.0 | 0.0 | 0.00 | 0.00 | 0.00 | 86 | 1018.3 |
| 20260906032559 | 74 | 158 | 0.0 | 0.0 | 0.00 | 0.00 | 0.00 | 85 | 1018.2 |
| 20260906032059 | 74 | 158 | 0.0 | 0.0 | 0.00 | 0.00 | 0.00 | 84 | 1018.2 |
| 20260906031555 | 74 | 158 | 0.0 | 0.0 | 0.00 | 0.00 | 0.00 | 84 | 1018.2 |
| 20260906031050 | 74 | 163 | 0.0 | 0.0 | 0.00 | 0.00 | 0.00 | 83 | 1018.2 |
| 20260906030549 | 74 | 163 | 0.0 | 0.0 | 0.00 | 0.00 | 0.00 | 83 | 1018.1 |
| 20260906030049 | 75 | 163 | 0.0 | 0.0 | 0.00 | 0.00 | 0.00 | 83 | 1018.2 |
| 20260906025549 | 75 | 163 | 0.0 | 0.0 | 0.00 | 0.00 | 0.00 | 83 | 1018.4 |
| 20260906025048 | 75 | 163 | 0.0 | 0.0 | 0.00 | 0.00 | 0.00 | 83 | 1018.4 |
| 20260906024543 | 75 | 163 | 0.0 | 0.0 | 0.00 | 0.00 | 0.00 | 83 | 1018.4 |
| 20260906024043 | 75 | 165 | 0.0 | 0.0 | 0.00 | 0.00 | 0.00 | 83 | 1018.4 |
| 20260906023539 | 75 | 174 | 0.0 | 0.0 | 0.00 | 0.00 | 0.00 | 82 | 1018.2 |
| 20260906023034 | 75 | 172 | 0.0 | 0.0 | 0.00 | 0.00 | 0.00 | 83 | 1018.1 |
| 20260906022529 | 75 | 170 | 0.0 | 0.0 | 0.00 | 0.00 | 0.00 | 82 | 1018.1 |
| 20260906022024 | 75 | 169 | 0.0 | 0.0 | 0.00 | 0.00 | 0.00 | 82 | 1018.0 |
| 20260906021520 | 75 | 169 | 0.0 | 0.0 | 0.00 | 0.00 | 0.00 | 81 | 1017.7 |
| 20260906021014 | 75 | 169 | 0.0 | 0.0 | 0.00 | 0.00 | 0.00 | 82 | 1017.8 |
| 20260906020513 | 75 | 162 | 0.0 | 0.0 | 0.00 | 0.00 | 0.00 | 81 | 1017.7 |
| 20260906020013 | 76 | 171 | 0.0 | 0.0 | 0.00 | 0.00 | 0.00 | 81 | 1017.5 |
| 20260906015512 | 76 | 161 | 0.0 | 0.0 | 0.00 | 0.00 | 0.00 | 80 | 1017.3 |
| 20260906015012 | 76 | 171 | 0.0 | 0.0 | 0.00 | 0.00 | 0.00 | 80 | 1017.1 |
| 20260906014512 | 77 | 199 | 2.0 | 3.0 | 0.00 | 0.00 | 0.00 | 79 | 1017.2 |
| 20260906014009 | 77 | 167 | 0.0 | 0.0 | 0.00 | 0.00 | 0.00 | 79 | 1016.9 |
| 20260906013504 | 77 | 159 | 0.0 | 2.0 | 0.00 | 0.00 | 0.00 | 79 | 1016.7 |
| 20260906012959 | 77 | 170 | 0.0 | 2.0 | 0.00 | 0.00 | 0.00 | 78 | 1016.6 |
| 20260906012454 | 77 | 157 | 0.0 | 0.0 | 0.00 | 0.00 | 0.00 | 78 | 1016.3 |
| 20260906011953 | 78 | 124 | 0.0 | 2.0 | 0.00 | 0.00 | 0.00 | 77 | 1016.3 |
| 20260906011449 | 78 | 159 | 0.0 | 0.0 | 0.00 | 0.00 | 0.00 | 76 | 1016.2 |
| 20260906010944 | 78 | 143 | 2.0 | 2.0 | 0.00 | 0.00 | 0.00 | 76 | 1016.1 |
| 20260906010439 | 78 | 159 | 0.0 | 0.0 | 0.00 | 0.00 | 0.00 | 75 | 1016.1 |
| 20260906005936 | 79 | 174 | 1.0 | 3.0 | 0.00 | 0.00 | 0.00 | 75 | 1016.0 |
| 20260906005435 | 79 | 190 | 2.0 | 2.0 | 0.00 | 0.00 | 0.00 | 75 | 1016.0 |
| 20260906004934 | 79 | 174 | 2.0 | 2.0 | 0.00 | 0.00 | 0.00 | 74 | 1016.0 |
| 20260906004428 | 80 | 161 | 2.0 | 5.0 | 0.00 | 0.00 | 0.00 | 73 | 1016.0 |
| 20260906003924 | 80 | 164 | 0.0 | 2.0 | 0.00 | 0.00 | 0.00 | 72 | 1015.7 |
| 20260906003419 | 81 | 154 | 2.0 | 3.0 | 0.00 | 0.00 | 0.00 | 71 | 1015.8 |
| 20260906002914 | 81 | 189 | 2.0 | 3.0 | 0.00 | 0.00 | 0.00 | 69 | 1015.5 |
| 20260906002408 | 81 | 185 | 0.0 | 0.0 | 0.00 | 0.00 | 0.00 | 67 | 1015.5 |
| 20260906001903 | 82 | 167 | 0.0 | 0.0 | 0.00 | 0.00 | 0.00 | 66 | 1015.6 |
| 20260906001359 | 82 | 147 | 0.0 | 0.0 | 0.00 | 0.00 | 0.00 | 65 | 1015.4 |
| 20260906000859 | 82 | 165 | 0.0 | 0.0 | 0.00 | 0.00 | 0.00 | 65 | 1015.5 |
| 20260906000356 | 82 | 141 | 0.0 | 2.0 | 0.00 | 0.00 | 0.00 | 64 | 1015.6 |
| 20260905235849 | 83 | 173 | 2.0 | 3.0 | 0.00 | 0.00 | 0.00 | 64 | 1015.7 |
| 20260905235348 | 83 | 175 | 0.0 | 2.0 | 0.00 | 0.00 | 0.00 | 64 | 1015.6 |
| 20260905234844 | 83 | 181 | 0.0 | 0.0 | 0.00 | 0.00 | 0.00 | 64 | 1015.6 |
| 20260905234339 | 84 | 169 | 0.0 | 2.0 | 0.00 | 0.00 | 0.00 | 63 | 1015.5 |
| 20260905233834 | 84 | 157 | 2.0 | 2.0 | 0.00 | 0.00 | 0.00 | 63 | 1015.4 |
| 20260905233329 | 84 | 151 | 2.0 | 2.0 | 0.00 | 0.00 | 0.00 | 62 | 1015.2 |
| 20260905232828 | 84 | 39 | 3.0 | 3.0 | 0.00 | 0.00 | 0.00 | 61 | 1015.1 |
| 20260905232325 | 84 | 164 | 0.0 | 0.0 | 0.00 | 0.00 | 0.00 | 61 | 1015.2 |
| 20260905231820 | 85 | 140 | 2.0 | 3.0 | 0.00 | 0.00 | 0.00 | 60 | 1015.1 |
| 20260905231315 | 85 | 123 | 1.0 | 2.0 | 0.00 | 0.00 | 0.00 | 60 | 1015.2 |
| 20260905230811 | 85 | 173 | 0.0 | 0.0 | 0.00 | 0.00 | 0.00 | 61 | 1015.0 |
| 20260905230309 | 85 | 152 | 1.0 | 2.0 | 0.00 | 0.00 | 0.00 | 60 | 1014.9 |
| 20260905225809 | 85 | 175 | 1.0 | 2.0 | 0.00 | 0.00 | 0.00 | 61 | 1015.1 |
| 20260905225306 | 85 | 149 | 2.0 | 3.0 | 0.00 | 0.00 | 0.00 | 61 | 1014.9 |
| 20260905224804 | 86 | 170 | 0.0 | 2.0 | 0.00 | 0.00 | 0.00 | 60 | 1014.7 |
| 20260905224300 | 86 | 101 | 4.0 | 5.0 | 0.00 | 0.00 | 0.00 | 59 | 1014.7 |
| 20260905223755 | 86 | 209 | 2.0 | 2.0 | 0.00 | 0.00 | 0.00 | 58 | 1014.9 |
| 20260905223252 | 86 | 51 | 4.0 | 5.0 | 0.00 | 0.00 | 0.00 | 58 | 1014.9 |
| 20260905222747 | 87 | 248 | 0.0 | 2.0 | 0.00 | 0.00 | 0.00 | 57 | 1014.8 |
| 20260905222246 | 87 | 189 | 2.0 | 3.0 | 0.00 | 0.00 | 0.00 | 57 | 1015.0 |
| 20260905221742 | 87 | 171 | 1.0 | 2.0 | 0.00 | 0.00 | 0.00 | 57 | 1015.0 |
| 20260905221239 | 88 | 108 | 2.0 | 2.0 | 0.00 | 0.00 | 0.00 | 55 | 1015.1 |
| 20260905220734 | 88 | 119 | 2.0 | 2.0 | 0.00 | 0.00 | 0.00 | 55 | 1015.2 |
| 20260905220231 | 88 | 176 | 1.0 | 2.0 | 0.00 | 0.00 | 0.00 | 56 | 1015.1 |
| 20260905215729 | 88 | 187 | 3.0 | 3.0 | 0.00 | 0.00 | 0.00 | 56 | 1015.2 |
| 20260905215225 | 88 | 106 | 2.0 | 3.0 | 0.00 | 0.00 | 0.00 | 56 | 1015.2 |
| 20260905214721 | 88 | 182 | 2.0 | 3.0 | 0.00 | 0.00 | 0.00 | 56 | 1015.4 |
| 20260905214216 | 87 | 186 | 1.0 | 2.0 | 0.00 | 0.00 | 0.00 | 57 | 1015.2 |
| 20260905213711 | 87 | 278 | 1.0 | 2.0 | 0.00 | 0.00 | 0.00 | 57 | 1015.3 |
| 20260905213207 | 89 | 87 | 2.0 | 7.0 | 0.00 | 0.00 | 0.00 | 56 | 1015.3 |
| 20260905212702 | 89 | 194 | 2.0 | 3.0 | 0.00 | 0.00 | 0.00 | 57 | 1015.2 |
| 20260905212201 | 89 | 177 | 1.0 | 2.0 | 0.00 | 0.00 | 0.00 | 57 | 1015.2 |
| 20260905211656 | 88 | 168 | 3.0 | 7.0 | 0.00 | 0.00 | 0.00 | 57 | 1015.3 |
| 20260905211151 | 87 | 134 | 2.0 | 2.0 | 0.00 | 0.00 | 0.00 | 58 | 1015.2 |
| 20260905210649 | 88 | 113 | 1.0 | 2.0 | 0.00 | 0.00 | 0.00 | 58 | 1015.1 |
| 20260905210148 | 88 | 106 | 3.0 | 5.0 | 0.00 | 0.00 | 0.00 | 58 | 1015.3 |
| 20260905205647 | 87 | 166 | 2.0 | 2.0 | 0.00 | 0.00 | 0.00 | 58 | 1015.3 |
| 20260905205142 | 88 | 20 | 4.0 | 5.0 | 0.00 | 0.00 | 0.00 | 57 | 1015.3 |
| 20260905204641 | 88 | 85 | 2.0 | 3.0 | 0.00 | 0.00 | 0.00 | 59 | 1015.9 |
| 20260905204136 | 88 | 2 | 2.0 | 3.0 | 0.00 | 0.00 | 0.00 | 60 | 1015.7 |
| 20260905203631 | 87 | 124 | 1.0 | 2.0 | 0.00 | 0.00 | 0.00 | 61 | 1016.2 |
| 20260905203126 | 86 | 113 | 2.0 | 3.0 | 0.00 | 0.00 | 0.00 | 63 | 1016.1 |
| 20260905202622 | 85 | 66 | 3.0 | 3.0 | 0.00 | 0.00 | 0.00 | 63 | 1016.3 |
| 20260905202117 | 85 | 133 | 2.0 | 3.0 | 0.00 | 0.00 | 0.00 | 63 | 1016.3 |
| 20260905201613 | 85 | 169 | 2.0 | 5.0 | 0.00 | 0.00 | 0.00 | 64 | 1016.5 |
| 20260905201112 | 85 | 192 | 1.0 | 2.0 | 0.00 | 0.00 | 0.00 | 64 | 1016.7 |
| 20260905200608 | 84 | 168 | 0.0 | 0.0 | 0.00 | 0.00 | 0.00 | 65 | 1016.6 |
| 20260905195555 | 84 | 183 | 4.0 | 5.0 | 0.00 | 0.00 | 0.00 | 64 | 1016.9 |
| 20260905195052 | 84 | 211 | 0.0 | 0.0 | 0.00 | 0.00 | 0.00 | 65 | 1016.9 |
| 20260905194551 | 84 | 138 | 1.0 | 3.0 | 0.00 | 0.00 | 0.00 | 66 | 1017.1 |
| 20260905194050 | 83 | 170 | 1.0 | 2.0 | 0.00 | 0.00 | 0.00 | 66 | 1017.3 |
| 20260905193546 | 83 | 130 | 1.0 | 2.0 | 0.00 | 0.00 | 0.00 | 66 | 1017.2 |
| 20260905193041 | 84 | 91 | 2.0 | 3.0 | 0.00 | 0.00 | 0.00 | 66 | 1017.2 |
| 20260905192536 | 84 | 161 | 1.0 | 2.0 | 0.00 | 0.00 | 0.00 | 65 | 1017.4 |
| 20260905192033 | 84 | 125 | 0.0 | 2.0 | 0.00 | 0.00 | 0.00 | 66 | 1017.5 |
| 20260905191530 | 84 | 85 | 3.0 | 3.0 | 0.00 | 0.00 | 0.00 | 65 | 1017.3 |
| 20260905191029 | 83 | 171 | 2.0 | 3.0 | 0.00 | 0.00 | 0.00 | 67 | 1017.2 |
| 20260905190527 | 83 | 153 | 2.0 | 3.0 | 0.00 | 0.00 | 0.00 | 67 | 1017.3 |
| 20260905190022 | 83 | 118 | 2.0 | 2.0 | 0.00 | 0.00 | 0.00 | 67 | 1017.2 |
| 20260905185521 | 82 | 192 | 1.0 | 2.0 | 0.00 | 0.00 | 0.00 | 70 | 1017.2 |
| 20260905185020 | 83 | 103 | 2.0 | 3.0 | 0.00 | 0.00 | 0.00 | 68 | 1017.3 |
| 20260905184515 | 83 | 175 | 0.0 | 0.0 | 0.00 | 0.00 | 0.00 | 69 | 1017.4 |
| 20260905184014 | 82 | 96 | 2.0 | 3.0 | 0.00 | 0.00 | 0.00 | 69 | 1017.4 |
| 20260905183514 | 83 | 162 | 1.0 | 2.0 | 0.00 | 0.00 | 0.00 | 68 | 1017.4 |
| 20260905183009 | 83 | 183 | 1.0 | 2.0 | 0.00 | 0.00 | 0.00 | 68 | 1017.5 |
| 20260905182508 | 83 | 172 | 1.0 | 2.0 | 0.00 | 0.00 | 0.00 | 68 | 1017.5 |
| 20260905182003 | 82 | 94 | 3.0 | 5.0 | 0.00 | 0.00 | 0.00 | 69 | 1017.5 |
| 20260905181458 | 82 | 72 | 1.0 | 2.0 | 0.00 | 0.00 | 0.00 | 71 | 1017.4 |
| 20260905180957 | 81 | 117 | 2.0 | 3.0 | 0.00 | 0.00 | 0.00 | 71 | 1017.7 |
| 20260905180452 | 81 | 198 | 2.0 | 3.0 | 0.00 | 0.00 | 0.00 | 71 | 1017.6 |
| 20260905175947 | 80 | 143 | 0.0 | 0.0 | 0.00 | 0.00 | 0.00 | 73 | 1017.7 |
| 20260905175446 | 80 | 164 | 1.0 | 2.0 | 0.00 | 0.00 | 0.00 | 73 | 1017.8 |
| 20260905174942 | 79 | 130 | 2.0 | 3.0 | 0.00 | 0.00 | 0.00 | 74 | 1017.8 |
| 20260905174437 | 80 | 160 | 0.0 | 2.0 | 0.00 | 0.00 | 0.00 | 74 | 1018.0 |
| 20260905173933 | 80 | 170 | 0.0 | 0.0 | 0.00 | 0.00 | 0.00 | 74 | 1018.1 |
| 20260905173429 | 80 | 159 | 1.0 | 2.0 | 0.00 | 0.00 | 0.00 | 75 | 1018.2 |
| 20260905172925 | 79 | 177 | 1.0 | 2.0 | 0.00 | 0.00 | 0.00 | 77 | 1018.3 |
| 20260905172422 | 78 | 231 | 0.0 | 0.0 | 0.00 | 0.00 | 0.00 | 77 | 1018.2 |
| 20260905171918 | 78 | 140 | 1.0 | 2.0 | 0.00 | 0.00 | 0.00 | 78 | 1018.5 |
| 20260905171415 | 77 | 2 | 2.0 | 3.0 | 0.00 | 0.00 | 0.00 | 78 | 1018.3 |
| 20260905170911 | 77 | 194 | 1.0 | 2.0 | 0.00 | 0.00 | 0.00 | 79 | 1018.4 |
| 20260905170407 | 77 | 152 | 4.0 | 7.0 | 0.00 | 0.00 | 0.00 | 79 | 1018.4 |
| 20260905165901 | 76 | 171 | 1.0 | 2.0 | 0.00 | 0.00 | 0.00 | 81 | 1018.2 |